sat.trackr.live / text

‹ back to catalog

STARLINK-33773

NORAD 63713 · 2025-087S

PAYLOAD ACTIVE UNKNOWN

§ Identity

Operator
Country
US
Launch date
2025-04-28
Launch site
AFWTR
Launch vehicle
Mass (kg)
RCS (m²)

Purposes: comms

External: N2YO · Heavens-Above · Gunter

§ Orbital elements

Epoch: 2026-09-20T20:18:13.345920Z

Period
94.01 min
Inclination
53.1594°
Eccentricity
0.0000906
Mean motion
15.31720304 rev/d
Perigee alt
470.1 km
Apogee alt
471.3 km
Semi-major
6,848.8 km
B*
5.2542e-4
RAAN
31.3212°
Arg perigee
90.0572°
Mean anomaly
270.0534°
Rev number
7,910

§ Raw data

STARLINK-337731 63713U 25087S   26263.84598780  .00015985  00000+0  52542-3 0  99982 63713  53.1594  31.3212 0000906  90.0572 270.0534 15.31720304 79103

JSON: /api/v1/satellites/63713 · /tle

For live sub-satellite position, see the globe view (requires WebGL).

§ Visibility from observer

Set your observer location to see the next 7 days of passes ≥ 10°. The values pass through the URL so the page stays shareable.

No JS? Fill the form by hand. The geolocation button needs JavaScript.